[[{"header":{"parameterUnit":"m.s-1","parameterCategory":1,"la1":30.2991,"la2":30.254,"lo1":-89.0895,"lo2":-89.0444,"dy":0.0017,"dx":0.0017,"nx":28,"ny":28,"refTime":"2024-04-24T03:00:00:Z","depth":0,"parameterNumber":2,"parameterNumberName":"U-component_of_WINDS"},"data":[0,0,0,0,0,0,0,0,0,0,0,0,0,0,0,0,0,0,0,0,0,0,0,0,0,0,0,0,0,0,0,0,0,0,0,0,0,0,0,0,0,0,0,0,0,0,0,0,0,0,0,0,0,0,0,0,0,0,-0.8118,-0.8118,0,-0.8053,-0.8052,-0.8051,-0.7985,-0.7985,-0.7984,-0.7983,-0.7916,-0.7915,-0.7914,0,0,0,0,0,0,0,0,0,0,0,0,0,-0.8187,-0.8186,-0.8118,-0.8118,-0.8117,-0.8053,-0.8052,-0.8051,-0.7986,-0.7985,-0.7983,-0.7982,-0.7916,-0.7915,-0.7914,0,0,0,0,0,0,0,0,0,0,0,0,0,-0.8143,-0.8186,-0.8119,-0.8076,-0.8072,-0.8053,-0.8052,-0.8051,-0.7986,-0.7985,-0.7983,-0.7982,-0.7916,-0.7915,-0.7913,-0.7931,0,0,-0.7909,-0.7908,0,0,0,0,0,0,0,0,-0.8145,-0.814,-0.8083,-0.8079,-0.8074,-0.8026,-0.8051,-0.8011,-0.7986,-0.8019,-0.7983,-0.7981,-0.7953,-0.7949,-0.7939,-0.7928,-0.7925,-0.7909,-0.7908,-0.7907,-0.7907,0,0,0,0,0,0,0,-0.8149,-0.8143,-0.8092,-0.8083,-0.8077,-0.8061,-0.8053,-0.8043,-0.7994,-0.8016,-0.8011,-0.8004,-0.7951,-0.7941,-0.7937,-0.7924,-0.7909,-0.7908,-0.7907,-0.7906,-0.7923,-0.7924,0,0,0,0,0,0,-0.8158,-0.8146,-0.8094,-0.809,-0.8107,-0.8061,-0.8052,-0.8043,-0.7994,-0.7985,-0.8005,-0.8001,-0.7944,-0.7939,-0.7935,-0.7952,-0.7907,-0.7906,-0.7905,-0.7922,-0.7924,-0.7925,0,0,0,0,0,0,-0.816,-0.8154,-0.8097,-0.8117,-0.8108,-0.8061,-0.8051,-0.8042,-0.8032,-0.7986,-0.7977,-0.8004,-0.7943,-0.7937,-0.7932,-0.7949,-0.7905,-0.7904,-0.792,-0.7922,-0.7924,-0.7987,0,0,0,0,0,0,-0.8162,-0.8155,-0.8161,-0.8117,-0.8107,-0.8096,-0.8052,-0.8042,-0.803,-0.8024,-0.7983,-0.7975,-0.7941,-0.7935,-0.7931,-0.7946,-0.7903,-0.7919,-0.7921,-0.7924,-0.7983,-0.7991,-0.7998,0,0,0,0,0,-0.8165,-0.8182,-0.8162,-0.8156,-0.8114,-0.8097,-0.8092,-0.8053,-0.8032,-0.8038,-0.8008,-0.7976,-0.7948,-0.7935,-0.793,-0.7945,-0.7917,-0.7921,-0.7923,-0.798,-0.799,-0.7997,0,0,0,0,0,0,-0.8229,-0.8175,-0.8153,-0.8156,-0.8132,-0.8086,-0.8092,-0.8064,-0.8045,-0.804,-0.7993,-0.7984,-0.7985,-0.7964,-0.7951,-0.7959,-0.7928,-0.793,-0.7973,-0.7981,-0.7988,-0.7994,-0.7902,0,0,0,0,0,-0.8243,-0.8234,-0.8187,-0.8195,-0.8184,-0.814,-0.8131,-0.8104,-0.8077,-0.8066,-0.8036,-0.8011,-0.7996,-0.7987,-0.7971,-0.798,-0.797,-0.7988,-0.7995,-0.8001,-0.8003,-0.8006,-0.8014,-0.7935,-0.7935,-0.7935,0,0,-0.8273,-0.8243,-0.824,-0.8207,-0.8185,-0.8176,-0.8132,-0.8125,-0.8118,-0.8065,-0.8059,-0.8036,-0.8005,-0.8007,-0.8007,-0.799,-0.8023,-0.8005,-0.801,-0.8009,-0.801,-0.8018,-0.8024,-0.7937,-0.7936,-0.7936,0,0,-0.8323,-0.8299,-0.8303,-0.8281,-0.8249,-0.822,-0.8221,-0.8179,-0.8162,-0.8155,-0.8115,-0.8106,-0.8082,-0.8062,-0.8048,-0.8091,-0.8061,-0.8087,-0.8124,-0.8127,-0.8134,-0.8139,-0.8154,-0.8161,-0.8089,-0.8089,-0.8089,0,-0.8365,-0.835,-0.8308,-0.8303,-0.829,-0.8242,-0.8245,-0.8226,-0.819,-0.8182,-0.8164,-0.8132,-0.8108,-0.8105,-0.8115,-0.8106,-0.8105,-0.8091,-0.8136,-0.8141,-0.8145,-0.816,-0.8165,-0.8093,-0.8092,-0.8092,-0.8092,0,-0.8403,-0.8393,-0.84,-0.8366,-0.8354,-0.8353,-0.8311,-0.8304,-0.8277,-0.825,-0.8244,-0.8213,-0.819,-0.8187,-0.8161,-0.818,-0.8171,-0.8145,-0.8113,-0.8157,-0.817,-0.8175,-0.8098,-0.8096,-0.8095,-0.8094,0,0,-0.8492,-0.8435,-0.8438,-0.8422,-0.8382,-0.8374,-0.8371,-0.8349,-0.8343,-0.832,-0.8316,-0.8297,-0.8273,-0.8258,-0.8228,-0.8232,-0.8268,-0.8205,-0.8204,-0.8218,-0.8287,-0.8308,-0.8315,-0.8247,-0.8248,-0.8249,-0.829,0,-0.8536,-0.8528,-0.849,-0.8493,-0.8484,-0.8437,-0.8435,-0.841,-0.8385,-0.8373,-0.8345,-0.8332,-0.8301,-0.8292,-0.8293,-0.8263,-0.8281,-0.826,-0.8244,-0.8244,-0.8254,-0.8321,-0.8342,-0.8383,-0.8295,-0.8296,-0.8296,0,-0.8586,-0.8566,-0.8568,-0.8528,-0.8523,-0.8522,-0.8498,-0.8487,-0.8458,-0.844,-0.8423,-0.839,-0.8384,-0.8354,-0.8346,-0.8332,-0.8323,-0.8308,-0.8308,-0.8306,-0.8273,-0.8321,-0.8394,-0.8401,-0.8303,-0.8303,-0.8302,0,-0.8651,-0.8625,-0.8623,-0.861,-0.8564,-0.8564,-0.8545,-0.8514,-0.8503,-0.8482,-0.8474,-0.8453,-0.8442,-0.8426,-0.8389,-0.837,-0.8385,-0.8351,-0.8369,-0.8371,-0.8375,-0.8375,-0.8449,-0.8369,-0.8369,-0.8369,-0.8369,0,-0.8704,-0.8708,-0.8651,-0.865,-0.8653,-0.8609,-0.8613,-0.8589,-0.8562,-0.8556,-0.8514,-0.8509,-0.8459,-0.8448,-0.8419,-0.8417,-0.8412,-0.8396,-0.8389,-0.84,-0.8403,-0.8395,-0.8391,-0.837,-0.837,-0.837,-0.8369,0,-0.8778,-0.8741,-0.8735,-0.8692,-0.8681,-0.8685,-0.8647,-0.8644,-0.8616,-0.8609,-0.8604,-0.856,-0.8545,-0.8506,-0.8481,-0.8461,-0.8467,-0.8452,-0.8477,-0.8472,-0.8493,-0.8492,-0.8564,-0.8572,-0.8487,-0.8488,-0.8488,0,-0.8815,-0.8817,-0.8773,-0.8766,-0.8748,-0.8737,-0.8725,-0.8682,-0.8672,-0.8639,-0.864,-0.8622,-0.8605,-0.8583,-0.8549,-0.8529,-0.8514,-0.8541,-0.8511,-0.8523,-0.8515,-0.8515,-0.8515,-0.8547,-0.8549,-0.855,-0.855,0,-0.8885,-0.8866,-0.8851,-0.8829,-0.8817,-0.8798,-0.8776,-0.8772,-0.8724,-0.8714,-0.8699,-0.8685,-0.866,-0.8642,-0.8617,-0.8597,-0.8566,-0.856,-0.8563,-0.8576,-0.859,-0.8583,-0.8496,-0.8559,-0.8558,-0.8557,-0.8557,-0.8556,-0.8941,-0.8941,-0.891,-0.8895,-0.8874,-0.8855,-0.885,-0.8821,-0.8807,-0.8783,-0.8758,-0.8745,-0.8716,-0.8679,-0.8661,-0.865,-0.8634,-0.8639,-0.864,-0.8642,-0.8647,-0.8591,-0.8645,-0.8645,-0.8645,-0.8645,-0.8644,0,-0.9009,-0.8987,-0.8973,-0.8945,-0.8933,-0.8904,-0.8879,-0.8871,-0.886,-0.8835,-0.8819,-0.8801,-0.8783,-0.8748,-0.8727,-0.8725,-0.8711,-0.8721,-0.8721,-0.8717,-0.8663,-0.8662,-0.8734,-0.8734,-0.8734,-0.8734,-0.8734,-0.8734,-0.9043,-0.9041,-0.9018,-0.9005,-0.8982,-0.8969,-0.8957,-0.894,-0.892,-0.8901,-0.8887,-0.8863,-0.8834,-0.8811,-0.8794,-0.8784,-0.8778,-0.8794,-0.878,-0.873,-0.8721,-0.8713,-0.8712,-0.8793,-0.8793,-0.8835,-0.8835,-0.8836]},{"header":{"parameterUnit":"m.s-1","parameterCategory":1,"la1":30.2991,"la2":30.254,"lo1":-89.0895,"lo2":-89.0444,"dy":0.0017,"dx":0.0017,"nx":28,"ny":28,"refTime":"2024-04-24T03:00:00:Z","depth":0,"parameterNumber":3,"parameterNumberName":"V-component_of_WINDS"},"data":[0,0,0,0,0,0,0,0,0,0,0,0,0,0,0,0,0,0,0,0,0,0,0,0,0,0,0,0,0,0,0,0,0,0,0,0,0,0,0,0,0,0,0,0,0,0,0,0,0,0,0,0,0,0,0,0,0,0,4.0928,4.0928,0,4.0956,4.0956,4.0957,4.0912,4.091,4.0909,4.0907,4.0933,4.0935,4.0937,0,0,0,0,0,0,0,0,0,0,0,0,0,4.0832,4.0834,4.0928,4.0928,4.0929,4.0956,4.0956,4.0957,4.0912,4.091,4.0908,4.0907,4.0932,4.0934,4.0937,0,0,0,0,0,0,0,0,0,0,0,0,0,4.0868,4.0834,4.0928,4.091,4.0909,4.0956,4.0956,4.0957,4.0913,4.091,4.0908,4.0906,4.0931,4.0934,4.0937,4.1003,0,0,4.0947,4.0948,0,0,0,0,0,0,0,0,4.0866,4.0872,4.0912,4.0911,4.091,4.0928,4.0932,4.0972,4.0913,4.0911,4.0907,4.0905,4.0933,4.0936,4.0946,4.1004,4.1005,4.0947,4.0949,4.0951,4.0951,0,0,0,0,0,0,0,4.0864,4.087,4.0939,4.0913,4.0911,4.0899,4.0902,4.0939,4.0934,4.0911,4.0908,4.0912,4.0932,4.0943,4.0946,4.1005,4.0947,4.095,4.0952,4.0953,4.1117,4.1119,0,0,0,0,0,0,4.0864,4.0868,4.0938,4.094,4.0882,4.0903,4.0906,4.0925,4.0934,4.0933,4.0914,4.091,4.0939,4.0943,4.0947,4.1023,4.095,4.0953,4.0955,4.1115,4.1118,4.112,0,0,0,0,0,0,4.0862,4.087,4.0937,4.0903,4.0911,4.0907,4.0928,4.0926,4.0938,4.0936,4.0935,4.0927,4.0937,4.0942,4.0989,4.1023,4.0955,4.0958,4.1112,4.1115,4.1119,4.1176,0,0,0,0,0,0,4.0859,4.087,4.0896,4.0904,4.0913,4.098,4.0931,4.0929,4.0944,4.0938,4.0948,4.0947,4.0936,4.0985,4.0992,4.1026,4.096,4.1108,4.1113,4.1118,4.1171,4.1181,4.119,0,0,0,0,0,4.0856,4.091,4.0897,4.0906,4.0945,4.0982,4.0987,4.0974,4.0947,4.0971,4.097,4.0946,4.1019,4.099,4.0998,4.1033,4.1106,4.1112,4.1117,4.1167,4.1179,4.1189,0,0,0,0,0,0,4.0904,4.0911,4.0897,4.0956,4.0969,4.0974,4.1006,4.0988,4.1008,4.1002,4.0984,4.0987,4.1037,4.104,4.1008,4.1096,4.1058,4.1065,4.1092,4.1104,4.1113,4.1111,4.0963,0,0,0,0,0,4.0922,4.0953,4.0957,4.1008,4.1016,4.101,4.1025,4.1014,4.1027,4.1032,4.1034,4.1046,4.1071,4.1088,4.1111,4.1172,4.1172,4.12,4.1209,4.1217,4.1223,4.1254,4.1266,4.1138,4.1138,4.1138,0,0,4.0959,4.0966,4.0986,4.1018,4.1027,4.1058,4.1015,4.1049,4.1071,4.1037,4.1081,4.1083,4.1095,4.1149,4.1172,4.1153,4.1259,4.1224,4.123,4.1232,4.1261,4.1273,4.1283,4.1142,4.1141,4.1141,0,0,4.104,4.105,4.1093,4.1104,4.1118,4.1114,4.1124,4.1133,4.1133,4.1178,4.1152,4.1178,4.1222,4.1231,4.1242,4.1328,4.1306,4.1336,4.1384,4.1414,4.1424,4.1433,4.1462,4.1473,4.1342,4.1342,4.1342,0,4.1083,4.113,4.1117,4.1154,4.1168,4.1139,4.1182,4.1192,4.1213,4.1223,4.1201,4.1255,4.1262,4.1316,4.1337,4.1347,4.1357,4.1334,4.1424,4.1433,4.1441,4.1468,4.1479,4.1346,4.1345,4.1345,4.1345,0,4.1181,4.1214,4.1247,4.1269,4.1287,4.1326,4.1318,4.1338,4.1326,4.1323,4.1368,4.1375,4.1398,4.1411,4.1399,4.1464,4.1451,4.1427,4.1387,4.1456,4.1482,4.1492,4.1351,4.1349,4.1348,4.1347,0,0,4.1293,4.1308,4.132,4.1329,4.1343,4.1368,4.1406,4.143,4.1446,4.1461,4.1491,4.153,4.1508,4.152,4.1509,4.1535,4.1601,4.1508,4.1508,4.1523,4.167,4.1687,4.1699,4.1587,4.1589,4.1591,4.1669,0,4.1373,4.1439,4.1429,4.1492,4.1521,4.1495,4.1527,4.1539,4.1538,4.1561,4.156,4.1587,4.1557,4.1563,4.1589,4.1588,4.163,4.1582,4.1613,4.1614,4.1609,4.1713,4.173,4.1803,4.1679,4.1681,4.1682,0,4.1475,4.1495,4.1562,4.1571,4.1582,4.1612,4.1633,4.1656,4.1668,4.1666,4.1679,4.1663,4.17,4.1661,4.171,4.1677,4.169,4.1691,4.1693,4.1694,4.1651,4.1714,4.1827,4.1837,4.1697,4.1696,4.1695,0,4.1548,4.1591,4.1636,4.1645,4.1657,4.1679,4.1684,4.1694,4.1709,4.1727,4.1736,4.1758,4.177,4.1787,4.1776,4.175,4.1826,4.1787,4.1823,4.1824,4.1839,4.1838,4.1953,4.185,4.185,4.185,4.185,0,4.1637,4.1678,4.1669,4.1697,4.1741,4.1729,4.1773,4.1776,4.1785,4.1811,4.179,4.1815,4.1801,4.1825,4.1817,4.1858,4.1864,4.1861,4.1858,4.1862,4.1862,4.1868,4.1862,4.1853,4.1852,4.1852,4.1851,0,4.1725,4.1721,4.1768,4.1776,4.1779,4.1811,4.1817,4.1842,4.184,4.1874,4.1881,4.1877,4.1904,4.1896,4.1925,4.1919,4.197,4.1962,4.1966,4.1963,4.1999,4.1995,4.2121,4.2136,4.2026,4.2027,4.2028,0,4.1781,4.1812,4.1824,4.184,4.1848,4.1875,4.1891,4.188,4.1896,4.1912,4.1935,4.196,4.1979,4.2023,4.2022,4.2044,4.2034,4.2077,4.2037,4.204,4.2032,4.203,4.2032,4.2084,4.2085,4.2086,4.2087,0,4.1881,4.1877,4.1901,4.1924,4.1943,4.196,4.1975,4.199,4.198,4.1999,4.2027,4.2042,4.2071,4.2096,4.2116,4.212,4.2101,4.21,4.2109,4.2112,4.2113,4.2111,4.1985,4.2097,4.2096,4.2095,4.2094,4.2094,4.1953,4.1979,4.1991,4.2018,4.2028,4.2043,4.2066,4.2068,4.2091,4.2114,4.2107,4.2138,4.2148,4.2173,4.218,4.2203,4.2187,4.2201,4.2204,4.2207,4.221,4.2111,4.2207,4.2207,4.2207,4.2206,4.2206,0,4.205,4.2057,4.2081,4.2104,4.2124,4.2107,4.2122,4.214,4.2168,4.218,4.22,4.2231,4.2255,4.2256,4.2278,4.2296,4.2288,4.2302,4.23,4.2301,4.2225,4.2214,4.2308,4.2308,4.2308,4.2308,4.2308,4.2308,4.2103,4.2145,4.2143,4.219,4.2196,4.2227,4.2238,4.225,4.226,4.2296,4.2316,4.2317,4.2324,4.2347,4.2367,4.2367,4.2375,4.2392,4.2388,4.2317,4.2306,4.2297,4.2286,4.2394,4.2394,4.2462,4.2462,4.2463]}]]